STARLINK-5517, 57249

Orbit data source: Space-Track

STARLINK-5517, 57249 is a payload satellite owned by SpaceX/Seattle (US) in LEO that was launched on Fri, 07 Jul 2023 UTC via an FALCON 9 launch vehicle from the Air Force Western Test Range (AFWTR). Payload-class satellites include a variety of spacecraft equipped with specific instruments for various scientific and technological missions. These include communications satellites like Starlink; space stations such as the ISS; scientific satellites like the Hubble; Earth observation satellites from companies like Planet Labs, Umbra, and HawkEye 360; GPS; miniature CubeSats for education and research; and military/defense satellites.

Loading next visibility...
Identifier
57249, 2023-094AH
Orbit
LEO
Country
Flag of USUS
Related business
Manufacturer
SpaceX/Seattle
Mission
Operational Commercial Communications
Bus & Motor
STARLINK, Unknown motor
Mass
305 kg wet, ~290 kg dry
Launch date (UTC)
2023-07-07 (3 years ago)
Launch vehicle
FALCON 9
Launch site
Air Force Western Test Range (AFWTR)
Object type
Payload
Rocket body
Debris
Shape & HBR
Box + 1 Pan, 10.1 m
Radar Cross Section
11.087 m², Large (>1 m²)

Expand to show TLE details & history
Last TLE update: 9 hours ago

TLE from 9 hours ago
0 STARLINK-5517
1 57249U 23094AH  26167.75472082  .00000029  00000-0  10605-4 0  9999
2 57249  43.0078 180.1070 0002064 290.1305  69.9324 15.27577321162394
Epoch: 2026-06-16T18:06Z
TLE epoch observation values (Epoch: 2026-06-16T18:06:47.878Z)
Latitude
-0.00008°
Longitude
3.38522°
Altitude
482.348 km
Speed
7.626 km/s
True Right ascension
12h 00m 25s
True Declination
0° 00' 00"
Sunlit
Object was in daylight at epoch
Visualization orbit readout
Latitude
Unknown
Longitude
Unknown
Altitude
Unknown
Speed
Unknown
Apparent Right ascension
Unknown
Apparent Declination
Unknown
Sunlit
N/A
Visualization observer readout
Local Sidereal Time
13:21:07
Azimuth
Unknown
Elevation
Unknown
Doppler factor
Unknown
Orbital elements
Apogee altitude
486.418 km
Perigee altitude
483.584 km
Semi-major axis
6,863.138 km
Eccentricity
0.00021
Inclination
43.0078°
RAAN
180.107°
Arg. of periapsis
290.1305°
True anomaly
69.95462°
Mean anomaly
69.9324°
Eccentric anomaly
69.94351°
Mean motion
3.81732 °/min
Orbital period
94.31 mins
BSTAR
0.000010605
Loading maneuver chart data...
Computing Atmospheric mass density...
Loading historical data...
Loading historical data...
Loading historical data...
Loading historical data...
Loading historical data...
Loading historical data...
Loading historical data...

Documentation

Showing up to 5 results
|